Regional Weather Roundup
Issued by NWS

Home | Current Version | Previous Version | Text Only | Print | Product List | Glossary Off
Versions: 1 2 3 4 5 6 7 8 9 10 11 12 13 14 15 16 17 18 19 20 21 22 23 24 25 26 27 28 29 30 31 32 33 34 35 36 37 38 39 40 41 42 43 44 45 46 47 48 49 50

000
ASUS43 KBIS 181920
RWRND

NORTH DAKOTA REGIONAL WEATHER ROUNDUP
NATIONAL WEATHER SERVICE BISMARCK ND
100 PM CST THU DEC 18 2014

NOTE: "FAIR" INDICATES FEW OR NO CLOUDS BELOW 12,000 FEET WITH NO
SIGNIFICANT WEATHER AND/OR OBSTRUCTIONS TO VISIBILITY.


NDZ001>003-009>011-017-182000-
NORTHWEST NORTH DAKOTA

CITY           SKY/WX    TMP DP  RH WIND       PRES   REMARKS
WILLISTON      CLOUDY    25  21  85 S6        29.97F WCI  18
MINOT          CLOUDY    22  17  81 S9        30.01F HAZE    WCI  12
MINOT AFB      CLOUDY    23  21  93 S8        30.01F WCI  14
$$

NDZ018>021-031>035-040>046-182000-
SOUTHWEST NORTH DAKOTA

CITY           SKY/WX    TMP DP  RH WIND       PRES   REMARKS
BISMARCK       CLOUDY    22  20  92 SE8       30.05F WCI  12
DICKINSON      CLOUDY    30  25  81 W7        29.94F
GARRISON         N/A     22  19  89 S9        30.00F WCI  12
HETTINGER ARPT CLOUDY    29  27  92 S6        29.97F
$$

NDZ004>008-012>016-024-026-027-054-182000-
NORTHEAST NORTH DAKOTA

CITY           SKY/WX    TMP DP  RH WIND       PRES   REMARKS
GRAND FORKS    CLOUDY    18  13  80 S10       30.20F WCI   6
GRND FRKS AFB  CLOUDY    17  16  98 S8        30.19F WCI   6
DEVILS LAKE    CLOUDY    19   9  63 S10       30.07F WCI   8
$$

NDZ022-023-025-028>030-036>039-047>053-182000-
SOUTHEAST NORTH DAKOTA

CITY           SKY/WX    TMP DP  RH WIND       PRES   REMARKS
FARGO          CLOUDY    18  12  77 SE13      30.21F WCI   5
JAMESTOWN      CLOUDY    20  15  81 S9        30.10F WCI   9
$$



USA.gov is the U.S. government's official web portal to all federal, state and local government web resources and services.